BEIDOU-2 M6 (C14)

Last updated on Sat Aug 15 2026 00:03:26 GMT+0000 (Coordinated Universal Time)

1 38775U 12050B 26226.35894524 -.00000040 00000+0 00000+0 0 9999 2 38775 56.5971 60.9723 0011895 4.4008 355.6705 1.86230889 94393
UTC large
Height (km)
Speed (km/s)
/
Latitude / Longitude
Inclination (degrees)
Orbital Period (minutes)
Azimuth
Elevation
Range (km)
Doppler Factor

Next 0 passes for location: London (51.5072 / 0.1276)

No passes found over London.
BEIDOU-2 M6 (C14)